www.pogodaiklimat.ru

Погода и климат >> Архив погоды >> Казахстан >> Диевская


ПОГОДА в Диевской

  • Прогноз погоды в Диевской
  • Монитор погоды в Диевской
  • Климат города

АРХИВ ПОГОДЫ в Диевской

Время (UTC), дата Ветер
(напр.,м/с)
 
Видим.   Явления Облачность Т
(С)
Тd
(С)
f
(%)
Тe
(С)
Тes
(С)
Комфортность P
(гПа)
Po
(гПа)
Тmin
(С)
Tmax
(С)
R
(мм)
R24
(мм)
S
(см)
03 14.10 З 6 4000 м слабый ливневой снег 10/10 600 м
[Cb cap]
+0.3 -1.7 86 -6 -6 1015.3 988.4 <0.5
09 14.10 З 6 20 км 9/9 1000 м
[Cu med, cong]
+3.0 -3.1 64 -2 -2 1015.7 989.1
12 14.10 З 4 20 км 9/9 1000 м
[Cu med, cong]
+3.5 -3.9 58 -1 -1 1015.9 989.3
18 14.10 З 3 н/о ясно -0.2 -3.6 78 -5 -5 1016.7 989.7 +3.6 0.0
21 14.10 С 3 н/о ясно -2.1 -5.3 79 -7 -7 1017.0 989.8
00 15.10 З 2 н/о дымка ясно -2.7 -4.3 89 -7 -7 1017.0 989.8
03 15.10 СЗ 2 4000 м слабый ливневой снег 10/10 600 м
[Cb cap]
-2.2 -3.4 91 -6 -6 1017.2 990.0 <0.5
09 15.10 С 5 20 км {ливн. осадки} 9/9 1000 м
[Cu med, cong]
+1.7 -3.0 71 -4 -3 1016.9 990.1
12 15.10 С 5 20 км 8/8 1000 м
[Cu med, cong]
+1.1 -4.1 68 -4 -4 1018.3 991.5
21 15.10 СВ 5 н/о дымка 10/0
[Ac und]
-2.0 -3.8 87 -9 -9 1022.6 995.3
00 16.10 С 3 н/о дымка 9/4 1000 м
[Sc Ac trans]
-1.6 -3.3 88 -7 -7 1023.8 996.6
06 16.10 С 4 20 км 9/6 1000 м
[Cu med, cong Ac trans]
+0.3 -3.0 78 -5 -4 1026.4 999.3 -3.5
09 16.10 З 5 20 км 9/8 1000 м
[Cu med, cong Ac trans]
+1.2 -4.8 64 -4 -4 1026.4 999.4
12 16.10 З 3 20 км 6/6 1000 м
[Cu med, cong]
+2.8 -6.1 52 -1 -1 1025.9 999.0
15 16.10 ЮЗ 2 н/о 3/0
[Ci fib]
-1.4 -7.8 62 -5 -5 1026.5 999.2 +3.1
18 16.10 Ю 4 н/о 9/6 1000 м
[Sc Ac trans]
-0.9 -5.9 69 -6 -6 1026.2 998.9 +3.1
21 16.10 Ю 8 н/о 9/9 1000 м
[Sc]
+0.1 -3.6 76 -7 -7 1023.5 996.5
00 17.10 ЮЗ 7 н/о 9/9 1000 м
[Sc]
+0.8 -2.5 79 -6 -6 1021.5 994.5
06 17.10 Ю 5 20 км 9/9 1000 м
[Cu med, cong]
+3.3 -0.5 76 -2 -2 1016.5 989.9 -1.9
09 17.10 ЮЗ 9 20 км 9/9 1000 м
[Cu med, cong]
+8.2 +2.7 68 +4 +4 1012.3 986.3
18 17.10 З 10 н/о 9/0
[Ac trans]
+8.2 +3.6 73 +3 +3 1005.3 979.5 +11.3
09 18.10 СЗ 10 20 км 9/9 1000 м
[Cu med, cong]
+6.1 -1.4 59 +1 +1 1012.2 986.1
21 18.10 З 6 н/о 9/4
[Sc Ac trans]
+0.8 -1.5 85 -6 -6 1017.1 990.2
00 19.10 З 5 н/о 9/6 1000 м
[Sc Ac trans]
+1.5 -0.5 87 -4 -4 1017.7 990.9
09 19.10 З 8 20 км 9/8 1000 м
[Cu med, cong Ac trans]
+5.6 -1.1 62 0 +1 1016.7 990.3
12 19.10 З 6 20 км 9/9 1000 м
[Cu med, cong]
+6.0 -0.6 63 +2 +2 1015.5 989.2
15 19.10 ЮЗ 6 н/о 9/9 1000 м
[Sc]
+8.6 +3.0 68 +5 +5 1014.4 988.4 +8.7
18 19.10 З 5 н/о 4/4 1000 м
[Sc]
+6.0 +2.1 76 +2 +2 1015.1 988.8 +8.7
21 19.10 З 4 н/о ясно +4.5 +1.4 80 0 0 1015.4 988.9
00 20.10 З 4 н/о ясно +3.2 +0.6 83 -1 -1 1015.6 989.0
06 20.10 З 6 20 км 8/0
[Ci]
+7.9 +4.5 79 +4 +5 1014.9 988.8 +1.6
09 20.10 З 8 20 км 9/5 1000 м
[Cu med, cong Ci fib]
+12.8 +5.3 60 +10 +10 1013.4 987.8
12 20.10 ЮЗ 8 20 км 9/9 1000 м
[Cu med, cong]
+12.2 +4.0 57 +9 +9 1013.4 987.7
15 20.10 З 9 н/о 9/0
[Ac cuf]
+12.0 +6.5 69 +9 +9 1013.3 987.6 +13.5
18 20.10 З 8 н/о 9/0
[Ac trans]
+9.6 +4.5 70 +6 +6 1013.0 987.2 +13.5
21 20.10 ЮЗ 9 н/о 9/4 1000 м
[Sc Ac trans]
+8.5 +4.0 73 +4 +4 1012.7 986.7

 

Местоположение метеостанции Диевская (Костанайская область, Казахстан): широта 52.00 долгота 63.69 высота над уровнем моря 120 м.

В архиве по умолчанию представлена погода в Диевской за последнюю неделю. Архивные данные за месяц целиком и за предыдущие месяцы, начиная с января 2011 года, Вы можете получить, выбрав интересующий диапазон дат из раскрывающегося списка и нажав кнопку "Ввод!".


*Определитесь, кто Вы:
робот инопланетянин человек

Внимание! Время в таблицах - всемирное. Для получения местного времени необходимо прибавить поправку, которая в Диевской равна 5 ч.

Смотрите также архив погоды в соседних городах и на ближайших метеорологических станциях:

Погода в Караменды (Костанайская область, Казахстан) (79 км)
Погода в Кусмурыне (Костанайская область, Казахстан) (85 км)
Погода в Тоболе (Костанайская область, Казахстан) (106 км)
Погода в Рудном (Костанайская область, Казахстан) (115 км)
Погода в Аралколе (Актюбинская область, Казахстан) (123 км)
Погода в Костанае 2 (Костанайская область, Казахстан) (134 км)
Погода в Костанае (Костанайская область, Казахстан) (136 км)
Погода в Железнодорожной (Костанайская область, Казахстан) (136 км)
Погода в Карасу (Костанайская область, Казахстан) (144 км)
Погода в Житикаре (Костанайская область, Казахстан) (165 км)

Пояснения к столбцам:

Ветер - указаны скорость ветра в м/с - средняя за 10 мин, порывы в срок и между сроками (в фигурных скобках) и направление, откуда дует ветер: С - северный, СВ - северо-восточный, В - восточный, ЮВ - юго-восточный, Ю - южный, ЮЗ - юго-западный, З - западный, СЗ - северо-западный.
Видимость - горизонтальная дальность видимости в метрах или километрах. При видимости от 1 до 10 км при отсутствии осадков обычно наблюдается дымка, при ухудшении видимости до 1 км и менее - туман. В сухую погоду видимость может ухудшаться дымом, пылью или мглою.
Явления - указаны атмосферные явления, наблюдавшиеся в срок или в последний час перед сроком; фигурными скобками обозначены явления, наблюдавшиеся между сроками (за 1-3 часа до срока); квадратными скобками обозначены град или гололедные отложения с указанием их диаметра в мм.
Облачность - указаны через наклонную черту общая и нижняя облачность в баллах и высота нижней границы облаков в метрах; квадратными скобками обозначены формы облаков: Ci - перистые, Cs - перисто-слоистые, Cc - перисто-кучевые, Ac - высококучевые, As - высокослоистые, Sc - слоисто-кучевые, Ns - слоисто-дождевые, Cu - кучевые, Cb - кучево-дождевые. Подробнее классификацию облаков см. в Атласе облаков (PDF).
T - Температура воздуха - температура, измеренная на высоте 2 м над землей.
Td - Температура точки росы - температура, при понижении до которой содержащийся в воздухе водяной пар достигнет насыщения.
f - Относительная влажность воздуха - влажноcть воздуха, измеренная на высоте 2 м над землей.
Te - Эффективная температура - температура, которую ощущает одетый по сезону человек в тени. Характеристика душности погоды. При расчете учитывается влияние влажности воздуха и скорости ветра на теплоощущения человека.
Tes - Эффективная температура на солнце - температура, которую ощущает человек, с поправкой на солнечный нагрев. Характеристика знойности погоды. Зависит от высоты солнца над горизонтом, облачности и скорости ветра. Ночью, в пасмурную погоду, а также при ветре 12 м/с и более поправка равна нулю.
P - Атмосферное давление - приведенное к уровню моря атмосферное давление.
Po - Атмосферное давление - измеренное на уровне метеостанции атмосферное давление.
Tmin - Минимальная температура - минимум температуры воздуха на высоте 2 м над землей.
Tmax - Максимальная температура - максимум температуры воздуха на высоте 2 м над землей.
R - Количество осадков - Количество выпавших осадков за период времени, мм. При наведении курсора мыши на число - период времени, за который выпало указанное количество осадков.
R24 - Количество осадков - Количество выпавших осадков за 24 часа, мм.
S - Снежный покров - Высота снежного покрова, см. При наведении курсора мыши на число - состояние снежного покрова и степень покрытия местности в баллах.